Regional Weather Roundup
Issued by NWS

Home | Current Version | Previous Version | Graphics & Text | Print | Product List | Glossary Off
Versions: 1 2 3 4 5 6 7 8 9 10 11 12 13 14 15 16 17 18 19 20 21 22 23 24 25 26 27 28 29 30 31 32 33 34 35 36 37 38 39 40 41 42 43 44 45 46 47 48 49 50

000
ASUS43 KMKX 201300
RWRWI

WISCONSIN REGIONAL WEATHER ROUNDUP
NATIONAL WEATHER SERVICE MILWAUKEE/SULLIVAN WI
700 AM CST SAT DEC 20 2014

NOTE: "FAIR" INDICATES FEW OR NO CLOUDS BELOW 12,000 FEET WITH NO
SIGNIFICANT WEATHER AND/OR OBSTRUCTIONS TO VISIBILITY.

WIZ001-002-006>008-014>016-023>028-201400-
NORTHWEST WISCONSIN

CITY           SKY/WX    TMP DP  RH WIND       PRES   REMARKS
SUPERIOR ARPT  CLOUDY    28  25  88 S3        30.17S
ASHLAND        CLOUDY    27  23  85 S3        30.20S
HAYWARD        CLOUDY    26  22  84 S6        30.17S WCI  19
SIREN          CLOUDY    28  24  84 S5        30.16S WCI  23
CUMBERLAND     CLOUDY    27  23  86 S6        30.15F WCI  20
RICE LAKE      CLOUDY    28  24  86 SE3       30.18S
CHETEK         CLOUDY    27  24  87 E5        30.18S WCI  22
LADYSMITH      CLOUDY    27  23  87 SE5       30.19S WCI  21
EAU CLAIRE     CLOUDY    28  21  75 SE8       30.18F WCI  20
MENOMONIE      CLOUDY    29  24  81 SE6       30.18F WCI  23
NEW RICHMOND   CLOUDY    28  26  90 S6        30.16S WCI  22
OSCEOLA        CLOUDY    29  26  88 SE6       30.19S WCI  23
$$

WIZ003>005-009-010-017-018-201400-
NORTH CENTRAL WISCONSIN

CITY           SKY/WX    TMP DP  RH WIND       PRES   REMARKS
MANITOWISH WTR CLOUDY    22  22 100 CALM      30.16S
ARBOR VITAE    CLOUDY    24  22  93 CALM      30.17S FOG
WOODRUFF       CLOUDY    24  22  93 CALM      30.17S FOG
RHINELANDER    CLOUDY    22  21  96 CALM      30.18S FOG
EAGLE RIVER    CLOUDY    21  21 100 CALM      30.17S FOG
LAND O LAKES   CLOUDY    22  20  95 CALM      30.18S FOG
PHILLIPS       CLOUDY    24  22  94 S3        30.16S
TOMAHAWK       CLOUDY    23  22  94 CALM      30.19R FOG
MEDFORD        CLOUDY    24  22  94 S5        30.18S FOG     WCI  18
MERRILL        CLOUDY    24  23  96 CALM      30.20S FOG
$$

WIZ029-030-035-036-043>047-201400-
CENTRAL WISCONSIN

CITY           SKY/WX    TMP DP  RH WIND       PRES   REMARKS
WAUSAU         CLOUDY    24  22  91 S3        30.20S FOG
MOSINEE        CLOUDY    25  25 100 S6        30.22S FOG     WCI  18
MARSHFIELD     CLOUDY    25  22  88 S8        30.20S WCI  16
STEVENS POINT  CLOUDY    23  22  95 S3        30.23F FOG
WAUPACA        CLOUDY    27  23  84 CALM      30.26S
WAUTOMA        NOT AVBL
WISC RAPIDS    CLOUDY    25  21  85 S5        30.24F WCI  19
CAMP DOUGLAS   MIX PCPN  27  27 100 E3        30.23S
$$

WIZ011>013-019>022-031-037>040-048>050-201400-
NORTHEAST WISCONSIN

CITY           SKY/WX    TMP DP  RH WIND       PRES   REMARKS
ANTIGO         CLOUDY    21  20  97 S3        30.20S FOG
SHAWANO        CLOUDY    23  20  89 CALM      30.26S
OCONTO         CLOUDY    16  16  98 CALM      30.28S
STURGEON BAY   CLOUDY    25  19  80 CALM      30.29R
GREEN BAY      MOCLDY    21  19  92 CALM      30.27S
MANITOWOC      NOT AVBL
APPLETON       MOCLDY    23  19  86 CALM      30.26S
CLINTONVILLE   CLOUDY    25  23  93 CALM      30.26S
OSHKOSH        CLOUDY    24  20  84 CALM      30.26S FOG
$$

WIZ032>034-041-042-053>061-201400-
SOUTHWEST WISCONSIN

CITY           SKY/WX    TMP DP  RH WIND       PRES   REMARKS
LA CROSSE      CLOUDY    30  24  78 SE6       30.22S WCI  24
SPARTA         CLOUDY    28  24  83 CALM      30.23F
VIROQUA        CLOUDY    26  26 100 SE5       30.20R WCI  20
BOSCOBEL       CLOUDY    29  24  82 CALM      30.25R
PRAIRIE DU CHI CLOUDY    29  25  86 E5        30.24R WCI  23
PLATTEVILLE    CLOUDY    28  26  94 CALM      30.23S
$$

WIZ056-057-062-063-064-067-068-201400-
SOUTH CENTRAL WISCONSIN

CITY           SKY/WX    TMP DP  RH WIND       PRES   REMARKS
REEDSBURG      FLURRIES  26  24  92 CALM      30.24S
BARABOO/DELLS  LGT SNOW  26  23  89 CALM      30.23F
LONE ROCK      NOT AVBL
MINERAL POINT  CLOUDY    28  27  93 E5        30.22S FOG     WCI  23
MADISON        FLURRIES  27  23  85 E5        30.24F WCI  22
MIDDLETON      CLOUDY    28  25  86 CALM      30.25S
WATERTOWN      LGT SNOW  25  24  96 CALM      30.26R
MONROE         CLOUDY    27  27 100 CALM      30.23S FOG
JANESVILLE     LGT SNOW  28  25  86 CALM      30.26S
$$

WIZ051-052-058>065-066-070>072-201400-
SOUTHEAST WISCONSIN

CITY           SKY/WX    TMP DP  RH WIND       PRES   REMARKS
MILWAUKEE      CLOUDY    27  18  69 W5        30.27S WCI  22
WAUKESHA       CLOUDY    21  18  86 CALM      30.27S
MILWAUKEE/TIMM CLOUDY    27  19  74 CALM      30.28R
RACINE         CLOUDY    27  19  72 NW3       30.29S
BURLINGTON     CLOUDY    24  21  88 CALM      30.27R
KENOSHA        CLOUDY    27  21  78 CALM      30.27S
FOND DU LAC    CLOUDY    24  20  84 CALM      30.26S
SHEBOYGAN      CLOUDY    26  20  77 NW3       30.26S
WEST BEND      MOCLDY    25  19  80 CALM      30.25S
JUNEAU         CLOUDY    25  22  88 CALM      30.26S
$$

LSZ147-162-201400-
LAKE SUPERIOR

STATION/POSITION TIME  TEMP    WIND        PRES    WAVE
                       AIR SEA DIR/SP/G            HT/PER
                 (UTC) (F)     (DEG/KT/KT) (MB)    (FT/S)
DEVILS ISLAND    1200   28     190/  6/  7 1023.2R
PORT WING        1200   28     170/  6/ 10 1022.0
SAXON HARBOR     1240   28     190/  3/  7 1022.4F
$$

LMZ867-665-643>646-201400-
LAKE MICHIGAN

STATION/POSITION TIME  TEMP    WIND        PRES    WAVE
                       AIR SEA DIR/SP/G            HT/PER
                 (UTC) (F)     (DEG/KT/KT) (MB)    (FT/S)
CHAMBERS ISLAND  1200   19      CALM  /  1 1025.1F
NORTHPORT PIER   1228   22      CALM  /  2 1025.1S
KEWAUNEE LAKESHO 1200   26     300/  4/  6 1024.2S
SHEBOYGAN LAKESH 1200   27 34  320/  7/  7 1026.0S
PORT WASHINGTON  1200   27     300/  2/  6 1025.7S
MILWAUKEE LAKESH 1200   27     280/  4/  6   N/A
KENOSHA   LAKESH 1200   27     300/  7/  9 1025.1S
$$

TC  - TEMPERATURE IN CELSIUS
VSB - VISIBILITY IN STATUTE MILES
WCI - WIND CHILL INDEX
HX  - HEAT INDEX




USA.gov is the U.S. government's official web portal to all federal, state and local government web resources and services.